Regional Weather Roundup
Issued by NWS Memphis, TN

Home | Current Version | Previous Version | Text Only | Print | Product List | Glossary On
Versions: 1 2 3 4 5 6 7 8 9 10 11 12 13 14 15 16 17 18 19 20 21 22 23 24 25 26 27 28 29 30 31 32 33 34 35 36 37 38 39 40 41 42 43 44 45 46 47 48 49 50
000
ASUS44 KMEG 280110
RWRMEG
MEMPHIS CWA HOURLY WEATHER ROUNDUP
NATIONAL WEATHER SERVICE MEMPHIS TN
800 PM CDT SAT MAY 27 2017

...WEST TENNESSEE...

CITY           SKY/WX    TMP DP  RH WIND       PRES   REMARKS
MEMPHIS INTL   CLOUDY    85  73  67 SW10      29.83R HX  91
NWS MEMPHIS      N/A     85 N/A N/A MISG        N/A
JACKSON        CLOUDY    81  75  82 CALM      29.86R
COVINGTON      CLOUDY    82  73  74 SE3       29.83S
BOLIVAR        MOCLDY    81  73  78 CALM      29.85S
LEXINGTON      CLOUDY    81  73  78 MISG      29.89R
SELMER         PTCLDY    81  73  78 CALM      29.87R
SAVANNAH       PTCLDY    81  73  78 CALM      29.87R
DYERSBURG        N/A    N/A N/A N/A MISG        N/A  THUNDER
UNION CITY     CLOUDY    66  63  88 NE9       29.90F
PARIS          CLOUDY    63  61  94 E5        29.95F
HUNTINGDON     CLOUDY    63  63 100 NE10G21   29.96R FOG


...EASTERN ARKANSAS...

CITY           SKY/WX    TMP DP  RH WIND       PRES   REMARKS
JONESBORO      CLOUDY    85  73  67 SE5       29.79S HX  91
WEST MEMPHIS   CLOUDY    84  74  71 S8        29.80S HX  91
BATESVILLE     PTCLDY    84  73  70 S5        29.78R HX  91
NEWPORT        CLEAR     84  74  71 S7        29.78R HX  91
WALNUT RIDGE   MOCLDY    73  64  73 NE17G24   29.80R
BLYTHEVILLE    CLOUDY    69  64  84 NE26G35   29.86R
SEARCY         CLEAR     83  76  79 S5        29.79R HX  91
STUTTGART      CLEAR     84  66  54 S13       29.80S
PINE BLUFF     CLEAR     83  74  74 S10       29.79F
MONTICELLO     CLEAR     83  76  79 S6        29.82F HX  91


...NORTH MISSISSIPPI...

CITY           SKY/WX    TMP DP  RH WIND       PRES   REMARKS
TUPELO         CLOUDY    83  72  69 S6        29.87R
OXFORD         CLOUDY    81  72  74 S7        29.87S
BATESVILLE     PTCLDY    83  72  69 S8        29.83F
OLIVE BRANCH   MOCLDY   N/A N/A N/A S12       29.82S
TUNICA         PTCLDY    82  72  69 S10G16    29.81F
CLARKSDALE       N/A     84  77  79 MISG      29.83S HX  94
CORINTH        CLOUDY    81  72  74 S5        29.86F
GREENWOOD      CLOUDY    83  75  77 S10       29.86S HX  90
COLUMBUS       CLEAR     82  75  80 S5        29.88F
STARKVILLE     CLEAR     79  73  83 S3        29.90F
GOLDEN TRIANGL CLEAR     81  70  69 S9        29.85F


...SOUTHEAST MISSOURI...

CITY           SKY/WX    TMP DP  RH WIND       PRES   REMARKS
KENNETT        CLOUDY    70  63  78 NE17G25   29.83S HAZE
MALDEN         CLOUDY    68  63  83 E6        29.86F THUNDER
WEST PLAINS    TSTM      65  61  87 NW38G48   30.04R FOG
POPLAR BLUFF   CLOUDY    66  63  90 E9        29.86R
CAPE GIRARDEAU CLOUDY    68  60  75 CALM      29.84F


...NORTHWEST ALABAMA...

CITY           SKY/WX    TMP DP  RH WIND       PRES   REMARKS
MUSCLE SHOALS  CLOUDY    81  72  74 S7        29.90R


...MIDDLE TENNESSEE...

CITY           SKY/WX    TMP DP  RH WIND       PRES   REMARKS
NASHVILLE      TSTM      67  64  90 W9        29.94S
CLARKSVILLE    TSTM      66  61  84 W9G30     30.01R
COLUMBIA       MOCLDY    81  72  74 CALM      29.88R


...WESTERN KENTUCKY...

CITY           SKY/WX    TMP DP  RH WIND       PRES   REMARKS
PADUCAH        CLOUDY    66  60  81 CALM      29.85F
FORT CAMPBELL  TSTM      64  64 100 W12       29.99R


...CENTRAL ARKANSAS...

CITY           SKY/WX    TMP DP  RH WIND       PRES   REMARKS
LITTLE ROCK    PTCLDY    82  76  81 S10       29.77F


SKY/WX REPORTED AS FAIR MEANS FEW OR NO CLOUDS BELOW
12 THOUSAND FEET.




USA.gov is the U.S. government's official web portal to all federal, state and local government web resources and services.